Total_Precipitation_Accumulation
0.87 0.86 0.84 0.79 0.77 0.80 0.89 1.05 1.25 1.20 0.94 0.76 0.73 0.73 0.75 0.74 0.76 0.69 0.60 0.74 0.81 0.83 0.88 0.92 0.89 0.86 0.87 0.96 1.12 1.29 1.41 1.43 1.43 1.52 1.61 1.64 1.71 1.84
0.80 0.80 0.78 0.77 0.78 0.82 0.88 0.96 1.08 1.21 1.09 0.80 0.68 0.66 0.70 0.73 0.79 0.69 0.62 0.73 0.74 0.74 0.76 0.77 0.79 0.83 0.87 0.91 0.99 1.11 1.27 1.40 1.42 1.45 1.53 1.59 1.66 1.76
0.77 0.75 0.75 0.74 0.77 0.79 0.84 0.89 0.94 1.03 1.04 0.84 0.70 0.68 0.70 0.70 0.72 0.70 0.65 0.61 0.58 0.66 0.66 0.66 0.68 0.74 0.83 0.87 0.90 0.96 1.10 1.23 1.35 1.40 1.49 1.56 1.59 1.60
0.77 0.79 0.80 0.81 0.84 0.87 0.89 0.89 0.89 0.90 0.93 0.87 0.73 0.65 0.61 0.59 0.59 0.60 0.60 0.58 0.52 0.60 0.62 0.61 0.63 0.67 0.75 0.78 0.79 0.84 0.93 1.00 1.11 1.20 1.25 1.31 1.38 1.47
0.72 0.77 0.81 0.87 0.92 0.92 0.91 0.89 0.86 0.83 0.84 0.85 0.75 0.63 0.57 0.54 0.56 0.58 0.59 0.57 0.52 0.55 0.56 0.55 0.57 0.60 0.64 0.71 0.73 0.74 0.76 0.80 0.85 0.95 1.03 1.10 1.17 1.25
0.74 0.76 0.79 0.81 0.82 0.82 0.80 0.79 0.80 0.80 0.81 0.83 0.80 0.70 0.61 0.56 0.60 0.66 0.65 0.57 0.53 0.47 0.49 0.48 0.48 0.48 0.50 0.55 0.59 0.61 0.63 0.70 0.79 0.89 1.01 1.04 1.05 1.13
0.81 0.80 0.77 0.75 0.70 0.70 0.70 0.70 0.69 0.75 0.82 0.87 0.82 0.73 0.63 0.60 0.60 0.59 0.64 0.61 0.55 0.48 0.44 0.42 0.42 0.39 0.39 0.44 0.50 0.57 0.65 0.77 0.91 1.03 1.16 1.25 1.28 1.29
0.72 0.70 0.68 0.68 0.67 0.69 0.70 0.69 0.73 0.83 0.92 0.91 0.80 0.65 0.51 0.47 0.52 0.62 0.72 0.76 0.67 0.47 0.45 0.47 0.45 0.45 0.42 0.45 0.55 0.62 0.71 0.82 0.96 1.05 1.13 1.20 1.25 1.32
0.65 0.60 0.57 0.53 0.54 0.52 0.58 0.65 0.67 0.72 0.76 0.75 0.69 0.56 0.50 0.51 0.66 0.82 0.81 0.76 0.60 0.43 0.46 0.52 0.48 0.50 0.50 0.55 0.65 0.66 0.73 0.81 0.93 1.03 1.11 1.17 1.19 1.25
0.50 0.46 0.43 0.43 0.44 0.48 0.54 0.62 0.56 0.52 0.52 0.50 0.51 0.55 0.56 0.56 0.65 0.78 0.77 0.73 0.61 0.52 0.51 0.59 0.52 0.51 0.51 0.56 0.66 0.65 0.69 0.77 0.87 0.98 1.06 1.10 1.13 1.19
0.40 0.41 0.44 0.40 0.46 0.60 0.63 0.61 0.50 0.41 0.43 0.50 0.55 0.54 0.55 0.53 0.55 0.74 0.90 0.94 0.78 0.56 0.49 0.51 0.47 0.48 0.52 0.56 0.63 0.68 0.68 0.73 0.81 0.90 0.95 1.02 1.09 1.14
0.38 0.40 0.44 0.43 0.51 0.63 0.58 0.55 0.47 0.41 0.42 0.40 0.39 0.39 0.38 0.41 0.50 0.62 0.97 1.25 0.98 0.68 0.45 0.55 0.57 0.63 0.80 0.59 0.58 0.61 0.63 0.71 0.78 0.80 0.84 0.93 0.99 0.98
0.39 0.37 0.39 0.53 0.61 0.60 0.53 0.43 0.45 0.51 0.44 0.35 0.33 0.33 0.33 0.34 0.37 0.41 0.63 1.16 1.36 0.91 0.45 0.85 0.98 0.71 0.87 0.68 0.58 0.63 0.70 0.82 0.89 0.88 0.87 0.90 0.93 0.95
0.35 0.32 0.38 0.54 0.54 0.48 0.42 0.45 0.53 0.50 0.39 0.38 0.37 0.37 0.35 0.33 0.33 0.35 0.40 0.56 0.85 0.94 0.64 1.00 1.40 1.00 1.06 0.88 0.68 0.70 0.74 0.94 1.19 1.25 1.18 1.12 1.02 0.98
0.41 0.47 0.51 0.47 0.41 0.38 0.39 0.43 0.43 0.40 0.45 0.52 0.48 0.39 0.34 0.33 0.35 0.39 0.41 0.45 0.52 0.57 0.62 0.76 1.09 1.11 1.23 1.19 0.92 0.78 0.89 1.01 1.32 1.60 1.51 1.29 1.07 0.95
0.51 0.52 0.45 0.38 0.34 0.35 0.38 0.38 0.37 0.39 0.48 0.56 0.51 0.41 0.36 0.39 0.43 0.51 0.61 0.62 0.68 0.61 0.60 0.66 0.80 1.08 1.16 0.96 1.05 0.98 1.03 1.36 1.56 1.75 1.62 1.36 1.13 0.95
0.57 0.43 0.34 0.32 0.32 0.31 0.30 0.31 0.34 0.38 0.43 0.45 0.50 0.49 0.44 0.44 0.45 0.54 0.72 0.83 0.86 0.74 0.66 0.61 0.59 0.67 0.82 0.91 0.96 0.92 1.05 1.30 1.52 1.67 1.47 1.28 1.21 1.08
0.47 0.38 0.36 0.34 0.32 0.30 0.29 0.30 0.31 0.35 0.42 0.50 0.53 0.54 0.55 0.54 0.54 0.57 0.74 0.89 0.89 0.78 0.71 0.62 0.59 0.60 0.60 0.64 0.85 1.05 1.10 1.27 1.38 1.32 1.05 1.03 1.13 1.04
0.36 0.37 0.38 0.38 0.37 0.34 0.35 0.37 0.36 0.35 0.45 0.57 0.63 0.64 0.65 0.62 0.63 0.68 0.76 0.82 0.79 0.70 0.59 0.52 0.60 0.82 0.82 0.61 0.55 0.85 1.17 1.23 1.08 1.00 0.87 0.89 1.10 1.04
0.29 0.33 0.36 0.38 0.40 0.43 0.45 0.47 0.47 0.46 0.51 0.59 0.64 0.68 0.74 0.77 0.75 0.74 0.78 0.81 0.76 0.58 0.42 0.33 0.43 0.78 1.13 1.01 0.81 0.79 0.89 1.03 1.06 1.05 0.87 0.76 0.85 0.84
0.29 0.30 0.31 0.35 0.40 0.46 0.49 0.51 0.55 0.59 0.64 0.73 0.73 0.75 0.80 0.88 0.81 0.74 0.72 0.65 0.57 0.49 0.42 0.32 0.32 0.49 0.77 0.83 0.70 0.61 0.72 0.79 0.90 1.18 1.11 0.94 0.75 0.63
0.31 0.31 0.31 0.33 0.40 0.45 0.48 0.52 0.57 0.59 0.66 0.73 0.76 0.79 0.84 0.90 0.86 0.72 0.61 0.57 0.50 0.46 0.42 0.32 0.28 0.34 0.51 0.70 0.62 0.49 0.51 0.51 0.49 0.50 0.72 1.03 1.36 1.44
0.34 0.34 0.33 0.36 0.41 0.46 0.50 0.51 0.56 0.59 0.67 0.78 0.82 0.79 0.79 0.74 0.63 0.59 0.56 0.56 0.56 0.51 0.45 0.40 0.35 0.36 0.41 0.48 0.52 0.44 0.38 0.35 0.32 0.35 0.51 0.56 0.69 0.94